Location: Newark
(42.9277°N, 71.8621°W)
Time: 19:52:47
(UTC+00:00)

Transit 4A - Pass Details

Date: 21 May 2021
Orbit: 872 x 973 km, 66.8° (Epoch: 15 June)

Event Time Altitude Azimuth Distance (km) Brightness Sun altitude
Rises 05:42:19 0° 330° (NNW) 3,486 11.5 -25.4°
Reaches altitude 10° 05:44:50 10° 333° (NNW) 2,536 10.8 -25.3°
Maximum altitude 05:50:40 70° 57° (ENE) 928 7.9 -25.0°
Enters shadow 05:53:12 35° 132° (SE) 1,384 8.6 -24.9°
